JM2FRX-13 Weather Reports


time (UTC)temp
F
wind
direction
speed
knots
gust
knots
rain 1hr
in
rain 24hr
in
rain mn
in
humidity
%
barometer
mb
20260504173733 57 242 6.1 13.0 0.00 0.67 0.00 69 1013.4
20260504170734 57 278 6.1 12.2 0.00 0.71 0.00 69 1012.6
20260504150734 58 167 5.2 15.6 0.00 4.41 0.00 67 1011.0
20260504140737 59 262 6.1 16.5 0.00 5.94 0.88 68 1010.5
20260504130734 60 49 7.0 14.8 0.00 6.81 0.88 68 1010.2
20260504080735 71 257 6.1 21.7 0.00 8.35 0.88 60 1003.5
20260504050746 77 246 7.8 17.4 0.00 8.35 0.88 51 1001.8
20260504043747 77 254 7.8 23.5 0.00 8.35 0.88 55 1001.9
20260504040748 77 257 7.8 21.7 0.00 8.35 0.88 60 1002.0
20260504033746 78 290 6.1 13.0 0.00 8.35 0.88 65 1001.6
20260504030747 77 262 5.2 19.1 0.00 8.35 0.88 70 1002.1
20260504023748 76 259 5.2 13.9 0.00 8.35 0.88 74 1002.1
20260504013805 74 246 7.0 12.2 0.00 8.35 0.88 76 1002.2
20260504010745 73 262 2.6 10.4 0.00 8.35 0.88 80 1002.8
20260504003742 72 264 3.5 13.0 0.00 8.35 0.88 84 1002.9
20260504000804 70 252 4.3 9.6 0.00 8.35 0.88 93 1003.2
20260503233743 68 253 3.5 8.7 0.00 8.35 0.88 100 1002.7
20260503230744 67 266 2.6 7.0 0.00 8.35 0.88 100 1002.5
20260503223743 67 258 3.5 9.6 0.00 8.35 0.88 100 1002.3
20260503220804 67 264 3.5 8.7 0.00 8.35 0.88 100 1001.7
20260503213740 67 252 1.7 7.8 0.00 8.35 0.88 100 1001.3
20260503210741 68 257 3.5 9.6 0.16 8.35 0.88 100 1001.1
20260503203743 69 256 3.5 9.6 0.20 8.35 0.88 100 1001.4
20260503200804 69 347 5.2 12.2 0.28 8.19 0.85 100 1000.5
20260503193744 69 312 4.3 12.2 0.47 8.15 0.84 100 1000.5
20260503190805 68 269 3.5 9.6 0.24 7.91 0.80 100 1000.8
20260503183745 68 316 3.5 7.8 0.00 7.68 0.75 100 1001.1
20260503180742 67 56 2.6 7.0 0.04 7.68 0.75 100 1002.2